Whidbey Island, WA

8:45 AM PDT on April 27, 2017 (GMT -0700)
Whidbey Island Naval Air Station

Weather History for KNUW - February, 2014

Change the Weather History Date:

Wednesday, February 12, 2014

  Actual Average Record
Temperature  
Mean Temperature 50 °F -  
Max Temperature 52 °F 46 °F 57 °F (2004)
Min Temperature 46 °F 33 °F 27 °F (2001)
Degree Days  
Heating Degree Days 15    
Moisture  
Dew Point 39 °F    
Average Humidity 65    
Maximum Humidity 77    
Minimum Humidity 54    
Precipitation  
Precipitation 0.01 in - - ()
Sea Level Pressure  
Sea Level Pressure 29.69 in    
Wind  
Wind Speed 23 mph (South)    
Max Wind Speed 34 mph    
Max Gust Speed 55 mph    
Visibility 10 miles    
Events Rain    
Averages and records for this station are not official NWS values.
T = Trace of Precipitation, MM = Missing Value Source: NWS Daily Summary

Daily Weather History Graph

Daily Weather History Graph

Search for Another Location

Airport or City:

Trip Planner

Search our weather history database for the weather conditions in past years. The results will help you decide how hot, cold, wet, or windy it might be!

Date:

Astronomy

Feb. 12, 2014 Rise Set
Actual Time 7:22 AM PST 5:27 PM PST
Civil Twilight 6:50 AM PST 6:00 PM PST
Nautical Twilight 6:13 AM PST 6:37 PM PST
Astronomical Twilight 5:37 AM PST 7:13 PM PST
Moon 3:43 PM PST (2/12) 5:46 AM PST (2/12)
Length of Visible Light 11h 10m
Length of Day
10h 05m
Waxing Gibbous, 96% of the Moon is Illuminated
Feb 12
Waxing Gibbous
Feb 14
Full
Feb 22
Last Quarter
Mar 1
New
Mar 8
First Quarter

Hourly Weather History & Observations

Time (PST) Temp. Dew Point Humidity Pressure Visibility Wind Dir Wind Speed Gust Speed Precip Events Conditions
12:56 AM 48.9 °F 41.0 °F 74% 29.42 in 10.0 mi SE 33.4 mph 55.2 mph 0.00 in Rain Light Rain
1:56 AM 50.0 °F 42.1 °F 74% 29.38 in 10.0 mi SE 34.5 mph 48.3 mph 0.00 in   Overcast
2:56 AM 50.0 °F 43.0 °F 77% 29.38 in 10.0 mi SE 32.2 mph 43.7 mph N/A   Mostly Cloudy
3:56 AM 51.1 °F 44.1 °F 77% 29.40 in 10.0 mi SSE 19.6 mph - N/A   Scattered Clouds
4:56 AM 51.1 °F 43.0 °F 74% 29.48 in 10.0 mi WSW 11.5 mph 18.4 mph N/A   Scattered Clouds
5:56 AM 52.0 °F 43.0 °F 71% 29.55 in 10.0 mi West 33.4 mph 42.6 mph N/A   Scattered Clouds
6:56 AM 48.9 °F 41.0 °F 74% 29.62 in 8.0 mi West 31.1 mph 48.3 mph N/A   Scattered Clouds
7:56 AM 48.9 °F 39.9 °F 71% 29.66 in 10.0 mi West 33.4 mph 42.6 mph N/A   Scattered Clouds
8:56 AM 50.0 °F 37.9 °F 63% 29.73 in 10.0 mi West 29.9 mph 41.4 mph N/A   Scattered Clouds
9:56 AM 51.1 °F 37.9 °F 61% 29.82 in 10.0 mi NW 16.1 mph - N/A   Partly Cloudy
10:56 AM 51.1 °F 39.0 °F 63% 29.86 in 10.0 mi WNW 16.1 mph 24.2 mph N/A   Partly Cloudy
11:56 AM 51.1 °F 39.9 °F 66% 29.89 in 10.0 mi WNW 9.2 mph - N/A   Mostly Cloudy
12:56 PM 52.0 °F 39.0 °F 61% 29.89 in 10.0 mi West 6.9 mph - N/A   Mostly Cloudy
1:56 PM 51.1 °F 37.9 °F 61% 29.88 in 10.0 mi SSE 4.6 mph - N/A   Overcast
2:56 PM 52.0 °F 37.0 °F 57% 29.86 in 10.0 mi East 6.9 mph - N/A   Overcast
3:56 PM 52.0 °F 37.0 °F 57% 29.84 in 10.0 mi East 11.5 mph - N/A   Overcast
4:56 PM 52.0 °F 37.9 °F 59% 29.81 in 10.0 mi ESE 11.5 mph - N/A   Mostly Cloudy
5:56 PM 50.0 °F 37.9 °F 63% 29.79 in 10.0 mi SE 11.5 mph - N/A   Overcast
6:56 PM 51.1 °F 37.0 °F 59% 29.78 in 10.0 mi SSE 13.8 mph - N/A   Overcast
7:56 PM 51.1 °F 35.1 °F 54% 29.75 in 10.0 mi SE 11.5 mph - N/A   Overcast
8:56 PM 50.0 °F 36.0 °F 59% 29.72 in 10.0 mi SE 17.3 mph - N/A   Overcast
9:23 PM 50.0 °F 36.0 °F 59% 29.70 in 10.0 mi SSE 16.1 mph - 0.00 in Rain Light Rain
9:56 PM 50.0 °F 35.1 °F 57% 29.70 in 10.0 mi SSE 10.4 mph - 0.00 in   Mostly Cloudy
10:56 PM 48.9 °F 37.9 °F 66% 29.70 in 8.0 mi SSE 18.4 mph 26.5 mph 0.01 in Rain Light Rain
11:56 PM 46.9 °F 39.9 °F 77% 29.69 in 10.0 mi SE 9.2 mph - 0.00 in   Scattered Clouds